Location: Wayah Bald
(35.1806°N, 83.5603°W)
Time: 05:28:39
(UTC-04:00)

Meteor 1-27 Rocket - Visible Passes

Search period start: 25 May 2018 00:00
Search period end: 04 June 2018 00:00
Orbit: 829 x 911 km, 81.3° (Epoch: 24 May)

Date Brightness Start Highest point End Pass type
(mag) Time Alt. Az. Time Alt. Az. Time Alt. Az.
25 May 6.4 21:20:34 10° WSW 21:24:51 22° WNW 21:29:05 10° NNW visible
26 May 6.5 21:14:28 10° WSW 21:18:38 21° WNW 21:22:49 10° NNW visible
27 May 6.5 21:08:21 10° WSW 21:12:27 21° WNW 21:16:31 10° NNW visible
31 May 6.0 05:50:09 10° NNE 05:55:03 30° ENE 05:59:58 10° SE visible
01 Jun 5.9 05:43:54 10° NNE 05:48:51 31° ENE 05:53:50 10° SE visible
02 Jun 5.8 05:37:38 10° NNE 05:42:38 32° ENE 05:47:41 10° SE visible
03 Jun 5.7 05:31:23 10° NNE 05:36:26 33° ENE 05:41:33 10° SE visible
